{"data":{"norad_id":54208,"epoch":"2026-09-20T00:43:35.371200Z","epoch_age_seconds":129874,"freshness":"FRESH","line1":"1 54208U 22141BD  26263.03027050 -.00000408  00000+0 -13827-5 0  9994","line2":"2 54208  53.1603 165.0763 0001486  80.7586 279.3584 15.31699506215843","mean_motion":15.31699506,"eccentricity":0.0001486,"inclination_deg":53.1603,"raan_deg":165.0763,"arg_perigee_deg":80.7586,"mean_anomaly_deg":279.3584,"bstar":-1.3827e-6,"rev_number":21584,"period_min":94.013218281994,"perigee_km":469.72372447402,"apogee_km":471.75921115465,"semimajor_km":6848.8784678143,"source":"CELESTRAK","updated_at":"2026-09-21T09:00:33.118725Z"}}